Time,TemperatureF,DewpointF,PressureIn,WindDirection,WindDirectionDegrees,WindSpeedMPH,WindSpeedGustMPH,Humidity,HourlyPrecipIn,Conditions,Clouds,dailyrainin,SoftwareType,DateUTC
2013-01-09 00:09:00,41.0,39.0,29.73,ESE,109,0.0,3.0,93,0.00,,,0.00,weatherlink.com 1.10,2013-01-09 08:09:00,
2013-01-09 00:24:00,40.8,39.0,29.73,WSW,243,0.0,3.0,92,0.00,,,0.00,weatherlink.com 1.10,2013-01-09 08:24:00,
2013-01-09 00:39:00,40.7,39.0,29.74,West,276,0.0,3.0,93,0.00,,,0.00,weatherlink.com 1.10,2013-01-09 08:39:00,
2013-01-09 00:54:00,40.8,39.0,29.74,NNW,342,0.0,3.0,93,0.00,,,0.00,weatherlink.com 1.10,2013-01-09 08:54:00,
2013-01-09 01:09:00,40.6,39.0,29.74,NW,311,1.0,4.0,92,0.00,,,0.00,weatherlink.com 1.10,2013-01-09 09:09:00,
2013-01-09 01:24:00,40.3,38.0,29.73,NNW,340,0.0,3.0,92,0.00,,,0.00,weatherlink.com 1.10,2013-01-09 09:24:00,
2013-01-09 01:39:00,40.0,38.0,29.73,NW,321,0.0,1.0,92,0.00,,,0.00,weatherlink.com 1.10,2013-01-09 09:39:00,
2013-01-09 01:54:00,39.8,38.0,29.74,NW,318,1.0,2.0,93,0.00,,,0.00,weatherlink.com 1.10,2013-01-09 09:54:00,
2013-01-09 02:09:00,39.5,38.0,29.74,WNW,292,0.0,2.0,93,0.00,,,0.00,weatherlink.com 1.10,2013-01-09 10:09:00,
2013-01-09 02:24:00,39.4,37.0,29.74,WNW,302,1.0,3.0,92,0.00,,,0.00,weatherlink.com 1.10,2013-01-09 10:24:00,
2013-01-09 02:39:00,39.7,38.0,29.74,West,281,0.0,2.0,94,0.00,,,0.00,weatherlink.com 1.10,2013-01-09 10:39:00,
2013-01-09 02:54:00,39.9,38.0,29.74,NNW,331,0.0,4.0,94,0.00,,,0.00,weatherlink.com 1.10,2013-01-09 10:54:00,
2013-01-09 03:09:00,39.9,38.0,29.74,NW,324,0.0,3.0,93,0.00,,,0.00,weatherlink.com 1.10,2013-01-09 11:09:00,
2013-01-09 03:24:00,39.7,38.0,29.73,NNW,346,0.0,2.0,93,0.00,,,0.00,weatherlink.com 1.10,2013-01-09 11:24:00,
2013-01-09 03:39:00,39.6,38.0,29.73,NNW,334,0.0,4.0,93,0.00,,,0.00,weatherlink.com 1.10,2013-01-09 11:39:00,
2013-01-09 03:54:00,39.8,38.0,29.73,NW,326,0.0,1.0,93,0.00,,,0.00,weatherlink.com 1.10,2013-01-09 11:54:00,
2013-01-09 04:09:00,39.4,37.0,29.72,North,351,0.0,4.0,92,0.00,,,0.00,weatherlink.com 1.10,2013-01-09 12:09:00,
2013-01-09 04:24:00,39.8,38.0,29.72,NNW,331,0.0,2.0,93,0.00,,,0.00,weatherlink.com 1.10,2013-01-09 12:24:00,
2013-01-09 04:39:00,39.5,37.0,29.72,NNW,331,0.0,1.0,92,0.00,,,0.00,weatherlink.com 1.10,2013-01-09 12:39:00,
2013-01-09 04:54:00,38.9,37.0,29.71,NNW,331,0.0,1.0,93,0.00,,,0.00,weatherlink.com 1.10,2013-01-09 12:54:00,
2013-01-09 05:09:00,38.6,37.0,29.72,NNW,331,0.0,1.0,93,0.00,,,0.00,weatherlink.com 1.10,2013-01-09 13:09:00,
2013-01-09 05:24:00,38.2,36.0,29.72,NNW,331,0.0,1.0,93,0.00,,,0.00,weatherlink.com 1.10,2013-01-09 13:24:00,
2013-01-09 05:39:00,37.8,36.0,29.72,NNW,329,0.0,2.0,94,0.00,,,0.00,weatherlink.com 1.10,2013-01-09 13:39:00,
2013-01-09 05:54:00,37.8,36.0,29.72,NW,324,0.0,3.0,94,0.00,,,0.00,weatherlink.com 1.10,2013-01-09 13:54:00,
2013-01-09 06:09:00,38.5,37.0,29.73,NNW,336,0.0,2.0,94,0.00,,,0.00,weatherlink.com 1.10,2013-01-09 14:09:00,
2013-01-09 06:24:00,38.2,37.0,29.72,NNW,332,3.0,3.0,94,0.00,,,0.00,weatherlink.com 1.10,2013-01-09 14:24:00,
2013-01-09 06:39:00,39.1,38.0,29.73,SE,130,0.0,4.0,95,0.00,,,0.00,weatherlink.com 1.10,2013-01-09 14:39:00,
2013-01-09 06:54:00,39.0,38.0,29.73,West,279,0.0,2.0,94,0.00,,,0.00,weatherlink.com 1.10,2013-01-09 14:54:00,
2013-01-09 07:09:00,38.6,37.0,29.73,NW,310,0.0,2.0,94,0.00,,,0.00,weatherlink.com 1.10,2013-01-09 15:09:00,
2013-01-09 07:24:00,38.5,37.0,29.74,NW,310,0.0,1.0,94,0.00,,,0.00,weatherlink.com 1.10,2013-01-09 15:24:00,
2013-01-09 07:39:00,38.6,37.0,29.74,NNW,331,2.0,3.0,95,0.00,,,0.00,weatherlink.com 1.10,2013-01-09 15:39:00,
2013-01-09 07:54:00,39.3,38.0,29.74,NNW,331,0.0,1.0,96,0.00,,,0.00,weatherlink.com 1.10,2013-01-09 15:54:00,
2013-01-09 08:09:00,41.3,41.0,29.75,NW,325,0.0,1.0,97,0.00,,,0.00,weatherlink.com 1.10,2013-01-09 16:09:00,
2013-01-09 08:24:00,-999.0,-99.9,29.75,North,-999,-999.0,-999.0,-999,0.00,,,0.00,weatherlink.com 1.10,2013-01-09 16:24:00,
2013-01-09 08:40:00,-999.0,-99.9,29.75,North,-999,-999.0,-999.0,-999,0.00,,,0.00,weatherlink.com 1.10,2013-01-09 16:40:00,
2013-01-09 08:55:00,-999.0,-99.9,29.75,North,-999,-999.0,-999.0,-999,0.00,,,0.00,weatherlink.com 1.10,2013-01-09 16:55:00,
2013-01-09 09:10:00,-999.0,-99.9,29.75,North,-999,-999.0,-999.0,-999,0.00,,,0.00,weatherlink.com 1.10,2013-01-09 17:10:00,
2013-01-09 09:25:00,52.0,45.0,29.75,South,171,0.0,2.0,78,0.00,,,0.00,weatherlink.com 1.10,2013-01-09 17:25:00,
2013-01-09 09:40:00,54.3,46.0,29.75,WNW,296,0.0,2.0,73,0.00,,,0.00,weatherlink.com 1.10,2013-01-09 17:40:00,
2013-01-09 09:55:00,56.9,44.0,29.75,South,173,0.0,5.0,62,0.00,,,0.00,weatherlink.com 1.10,2013-01-09 17:55:00,
2013-01-09 10:10:00,59.0,45.0,29.75,SW,218,3.0,5.0,60,0.00,,,0.00,weatherlink.com 1.10,2013-01-09 18:10:00,
2013-01-09 10:25:00,59.9,43.0,29.75,South,186,3.0,5.0,55,0.00,,,0.00,weatherlink.com 1.10,2013-01-09 18:25:00,
2013-01-09 10:40:00,60.6,44.0,29.75,South,190,2.0,4.0,54,0.00,,,0.00,weatherlink.com 1.10,2013-01-09 18:40:00,
2013-01-09 10:55:00,61.0,44.0,29.74,South,183,2.0,5.0,54,0.00,,,0.00,weatherlink.com 1.10,2013-01-09 18:55:00,
2013-01-09 11:10:00,61.7,46.0,29.73,SSW,203,3.0,5.0,57,0.00,,,0.00,weatherlink.com 1.10,2013-01-09 19:10:00,
2013-01-09 11:25:00,62.0,47.0,29.73,SW,224,3.0,5.0,59,0.00,,,0.00,weatherlink.com 1.10,2013-01-09 19:25:00,
2013-01-09 11:40:00,62.6,49.0,29.72,SW,215,0.0,5.0,61,0.00,,,0.00,weatherlink.com 1.10,2013-01-09 19:40:00,
2013-01-09 11:55:00,63.1,48.0,29.71,SW,231,3.0,6.0,58,0.00,,,0.00,weatherlink.com 1.10,2013-01-09 19:55:00,
2013-01-09 12:10:00,63.6,47.0,29.71,SW,225,3.0,8.0,56,0.00,,,0.00,weatherlink.com 1.10,2013-01-09 20:10:00,
2013-01-09 12:25:00,64.5,47.0,29.70,SW,232,3.0,7.0,53,0.00,,,0.00,weatherlink.com 1.10,2013-01-09 20:25:00,
2013-01-09 12:40:00,64.9,49.0,29.69,SW,236,5.0,8.0,57,0.00,,,0.00,weatherlink.com 1.10,2013-01-09 20:40:00,
2013-01-09 12:55:00,65.3,49.0,29.68,SW,225,5.0,8.0,57,0.00,,,0.00,weatherlink.com 1.10,2013-01-09 20:55:00,
2013-01-09 13:10:00,64.7,51.0,29.68,SW,231,7.0,8.0,61,0.00,,,0.00,weatherlink.com 1.10,2013-01-09 21:10:00,
2013-01-09 13:25:00,64.7,51.0,29.68,WSW,238,4.0,8.0,61,0.00,,,0.00,weatherlink.com 1.10,2013-01-09 21:25:00,
2013-01-09 13:40:00,64.3,51.0,29.67,South,191,3.0,7.0,62,0.00,,,0.00,weatherlink.com 1.10,2013-01-09 21:40:00,
2013-01-09 13:56:00,64.6,49.0,29.66,SW,216,2.0,7.0,57,0.00,,,0.00,weatherlink.com 1.10,2013-01-09 21:56:00,
2013-01-09 14:11:00,65.0,50.0,29.66,SW,217,2.0,8.0,58,0.00,,,0.00,weatherlink.com 1.10,2013-01-09 22:11:00,
2013-01-09 14:26:00,64.6,50.0,29.66,SW,221,6.0,9.0,59,0.00,,,0.00,weatherlink.com 1.10,2013-01-09 22:26:00,
2013-01-09 14:41:00,63.7,50.0,29.66,SW,227,5.0,9.0,62,0.00,,,0.00,weatherlink.com 1.10,2013-01-09 22:41:00,
2013-01-09 14:56:00,62.6,52.0,29.66,SSW,209,2.0,7.0,69,0.00,,,0.00,weatherlink.com 1.10,2013-01-09 22:56:00,
2013-01-09 15:11:00,61.2,52.0,29.66,SW,216,9.0,10.0,72,0.00,,,0.00,weatherlink.com 1.10,2013-01-09 23:11:00,
2013-01-09 15:26:00,60.0,53.0,29.66,SW,227,4.0,13.0,77,0.00,,,0.00,weatherlink.com 1.10,2013-01-09 23:26:00,
2013-01-09 15:41:00,59.1,52.0,29.66,SW,234,7.0,12.0,78,0.00,,,0.00,weatherlink.com 1.10,2013-01-09 23:41:00,
2013-01-09 15:56:00,58.0,52.0,29.67,WSW,243,9.0,13.0,79,0.00,,,0.00,weatherlink.com 1.10,2013-01-09 23:56:00,
2013-01-09 16:11:00,56.9,52.0,29.67,SW,233,7.0,14.0,82,0.00,,,0.00,weatherlink.com 1.10,2013-01-10 00:11:00,
2013-01-09 16:26:00,55.9,51.0,29.67,WSW,244,6.0,14.0,84,0.00,,,0.00,weatherlink.com 1.10,2013-01-10 00:26:00,
2013-01-09 16:41:00,54.8,51.0,29.67,SW,228,4.0,13.0,86,0.00,,,0.00,weatherlink.com 1.10,2013-01-10 00:41:00,
2013-01-09 16:56:00,53.7,50.0,29.68,WSW,244,5.0,12.0,88,0.00,,,0.00,weatherlink.com 1.10,2013-01-10 00:56:00,
2013-01-09 17:11:00,53.0,50.0,29.68,WSW,240,3.0,9.0,88,0.00,,,0.00,weatherlink.com 1.10,2013-01-10 01:11:00,
2013-01-09 17:26:00,52.4,49.0,29.67,SW,235,2.0,5.0,89,0.00,,,0.00,weatherlink.com 1.10,2013-01-10 01:26:00,
2013-01-09 17:41:00,51.8,49.0,29.67,SSW,206,0.0,2.0,90,0.00,,,0.00,weatherlink.com 1.10,2013-01-10 01:41:00,
2013-01-09 17:56:00,51.2,48.0,29.68,WSW,240,2.0,2.0,89,0.00,,,0.00,weatherlink.com 1.10,2013-01-10 01:56:00,
2013-01-09 18:11:00,50.2,47.0,29.68,WSW,240,0.0,1.0,89,0.00,,,0.00,weatherlink.com 1.10,2013-01-10 02:11:00,
2013-01-09 18:26:00,48.8,46.0,29.67,WSW,240,0.0,1.0,89,0.00,,,0.00,weatherlink.com 1.10,2013-01-10 02:26:00,
2013-01-09 18:41:00,47.8,45.0,29.67,WSW,244,1.0,1.0,90,0.00,,,0.00,weatherlink.com 1.10,2013-01-10 02:41:00,
2013-01-09 18:56:00,47.0,45.0,29.67,West,261,0.0,1.0,92,0.00,,,0.00,weatherlink.com 1.10,2013-01-10 02:56:00,
2013-01-09 19:11:00,46.6,44.0,29.67,West,278,0.0,1.0,92,0.00,,,0.00,weatherlink.com 1.10,2013-01-10 03:11:00,
2013-01-09 19:26:00,46.1,44.0,29.67,WNW,283,0.0,1.0,92,0.00,,,0.00,weatherlink.com 1.10,2013-01-10 03:26:00,
2013-01-09 19:41:00,45.7,44.0,29.67,WNW,284,0.0,0.0,93,0.00,,,0.00,weatherlink.com 1.10,2013-01-10 03:41:00,
2013-01-09 19:56:00,45.0,43.0,29.66,WNW,284,0.0,1.0,92,0.00,,,0.00,weatherlink.com 1.10,2013-01-10 03:56:00,
2013-01-09 20:11:00,44.8,43.0,29.66,WNW,284,0.0,0.0,93,0.00,,,0.00,weatherlink.com 1.10,2013-01-10 04:11:00,
2013-01-09 20:26:00,44.7,43.0,29.66,NW,304,0.0,2.0,94,0.00,,,0.00,weatherlink.com 1.10,2013-01-10 04:26:00,
2013-01-09 20:41:00,44.7,43.0,29.66,SSW,205,0.0,2.0,95,0.00,,,0.00,weatherlink.com 1.10,2013-01-10 04:41:00,
2013-01-09 20:56:00,44.3,43.0,29.66,SSW,205,0.0,1.0,94,0.00,,,0.00,weatherlink.com 1.10,2013-01-10 04:56:00,
2013-01-09 21:11:00,45.1,44.0,29.66,SSW,213,0.0,1.0,96,0.00,,,0.00,weatherlink.com 1.10,2013-01-10 05:11:00,
2013-01-09 21:26:00,46.0,45.0,29.66,SSW,213,0.0,1.0,96,0.00,,,0.00,weatherlink.com 1.10,2013-01-10 05:26:00,
2013-01-09 21:45:00,46.9,46.0,29.68,West,261,0.0,2.0,97,0.00,,,0.00,weatherlink.com 1.10,2013-01-10 05:45:00,
2013-01-09 21:56:00,48.1,47.0,29.67,WSW,246,0.0,2.0,97,0.00,,,0.00,weatherlink.com 1.10,2013-01-10 05:56:00,
2013-01-09 22:11:00,48.1,47.0,29.67,SSW,201,0.0,3.0,96,0.00,,,0.00,weatherlink.com 1.10,2013-01-10 06:11:00,
2013-01-09 22:26:00,48.1,47.0,29.66,South,188,0.0,2.0,96,0.00,,,0.00,weatherlink.com 1.10,2013-01-10 06:26:00,
2013-01-09 22:41:00,48.0,47.0,29.66,East,101,0.0,2.0,96,0.00,,,0.00,weatherlink.com 1.10,2013-01-10 06:41:00,
2013-01-09 22:56:00,48.1,47.0,29.65,NNE,28,1.0,2.0,96,0.00,,,0.00,weatherlink.com 1.10,2013-01-10 06:56:00,
2013-01-09 23:11:00,48.4,47.0,29.65,North,355,0.0,2.0,96,0.00,,,0.00,weatherlink.com 1.10,2013-01-10 07:11:00,
2013-01-09 23:26:00,48.6,48.0,29.65,North,355,0.0,1.0,96,0.00,,,0.00,weatherlink.com 1.10,2013-01-10 07:26:00,
2013-01-09 23:41:00,48.6,48.0,29.65,North,351,0.0,1.0,96,0.00,,,0.00,weatherlink.com 1.10,2013-01-10 07:41:00,
2013-01-09 23:56:00,48.8,48.0,29.66,SW,217,1.0,2.0,96,0.00,,,0.00,weatherlink.com 1.10,2013-01-10 07:56:00,